�N����,�����b,�ŏ������i�x�j,���ϕ����i�x�j,�ő啗���i�x�j,�ŏ�����(m/s),���ϕ���(m/s),�ő啗��(m/s),�C��(���j,���x�i���j,�C��(hPa),�~�J��(mm),�~�J����(�b�j,�~�J���x(mm/h),�ő�~�J���x(mm/h),�~�Ђ傤��(hit/���u),�~�Ђ傤����(�b�j,�~�Ђ傤���x(hit/���uh),�ő�~�Ђ傤���x(hit/���uh),�q�[�^���x(���j,�q�[�^�[�d���iV),�d���d���iV),�Q�Ɠd���iV)
2013/03/01,00:00:01,183,193,207,0.8,1.0,1.2,19.5,84.5,1008.7,0.00,0,0.0,////,0.0,0,0.0,////,18.1,0.0,12.3,3.523
2013/03/01,00:10:01,111,131,146,0.8,1.0,1.1,19.4,85.1,1008.7,0.00,0,0.0,////,0.0,0,0.0,////,17.9,0.0,12.3,3.525
2013/03/01,00:20:01,244,246,248,0.5,0.6,0.8,19.6,84.6,1008.8,0.00,0,0.0,////,0.0,0,0.0,////,17.9,0.0,12.3,3.521
2013/03/01,00:30:01,248,255,261,1.1,1.2,1.4,19.7,84.7,1008.8,0.00,0,0.0,////,0.0,0,0.0,////,18.4,0.0,12.3,3.521
2013/03/01,00:40:01,247,248,249,0.5,0.6,0.7,19.6,84.0,1008.9,0.00,0,0.0,////,0.0,0,0.0,////,18.2,0.0,12.3,3.521
2013/03/01,00:50:01,255,258,265,0.7,0.7,0.8,19.6,84.5,1008.8,0.00,0,0.0,////,0.0,0,0.0,////,17.9,0.0,12.3,3.523
2013/03/01,01:00:01,323,325,328,0.7,0.7,0.8,19.5,84.2,1008.9,0.00,0,0.0,////,0.0,0,0.0,////,18.1,0.0,12.3,3.520
2013/03/01,01:10:01,236,239,244,1.3,1.5,1.6,19.6,84.7,1008.9,0.00,0,0.0,////,0.0,0,0.0,////,18.1,0.0,12.3,3.523
2013/03/01,01:20:01,182,184,186,1.3,1.4,1.5,19.4,84.0,1008.9,0.00,0,0.0,////,0.0,0,0.0,////,17.9,0.0,12.3,3.521
2013/03/01,01:30:01,037,043,052,0.4,0.6,0.7,19.3,84.2,1008.9,0.00,0,0.0,////,0.0,0,0.0,////,17.7,0.0,12.3,3.523
2013/03/01,01:40:01,148,157,168,0.9,1.0,1.1,19.2,84.6,1008.8,0.00,0,0.0,////,0.0,0,0.0,////,17.7,0.0,12.3,3.523
2013/03/01,01:50:01,349,353,359,0.9,1.0,1.1,19.3,85.5,1008.7,0.00,0,0.0,////,0.0,0,0.0,////,17.7,0.0,12.3,3.521
2013/03/01,02:00:01,141,146,151,0.9,1.0,1.2,19.5,84.5,1008.8,0.00,0,0.0,////,0.0,0,0.0,////,17.7,0.0,12.3,3.511
2013/03/01,02:10:01,134,135,135,0.4,0.5,0.6,19.5,84.6,1008.7,0.00,0,0.0,////,0.0,0,0.0,////,17.7,0.0,12.3,3.514
2013/03/01,02:20:01,333,345,359,0.2,0.3,0.5,19.5,85.4,1008.6,0.00,0,0.0,////,0.0,0,0.0,////,17.7,0.0,12.3,3.513
2013/03/01,02:30:01,174,182,192,0.7,0.8,0.9,19.5,85.0,1008.7,0.00,0,0.0,////,0.0,0,0.0,////,17.9,0.0,12.3,3.513
2013/03/01,02:40:01,193,196,198,0.5,0.5,0.6,19.4,85.3,1008.7,0.00,0,0.0,////,0.0,0,0.0,////,17.7,0.0,12.3,3.513
2013/03/01,02:50:01,179,182,184,0.8,0.8,0.9,19.3,84.6,1008.6,0.00,0,0.0,////,0.0,0,0.0,////,17.7,0.0,12.3,3.511
2013/03/01,03:00:01,211,217,225,1.1,1.3,1.4,19.3,85.1,1008.4,0.00,0,0.0,////,0.0,0,0.0,////,17.7,0.0,12.3,3.513
2013/03/01,03:10:01,176,177,178,0.9,1.0,1.1,19.2,85.3,1008.3,0.00,0,0.0,////,0.0,0,0.0,////,17.7,0.0,12.3,3.513
2013/03/01,03:20:01,156,159,161,0.8,1.0,1.1,19.2,86.5,1008.4,0.00,0,0.0,////,0.0,0,0.0,////,17.4,0.0,12.3,3.511
2013/03/01,03:30:01,174,178,183,0.8,0.8,0.9,19.1,86.7,1008.3,0.00,0,0.0,////,0.0,0,0.0,////,17.2,0.0,12.3,3.511
2013/03/01,03:40:01,186,187,188,1.0,1.2,1.3,19.1,86.9,1008.3,0.00,0,0.0,////,0.0,0,0.0,////,17.2,0.0,12.3,3.513
2013/03/01,03:50:01,149,157,164,1.0,1.3,1.6,19.2,86.5,1008.2,0.00,0,0.0,////,0.0,0,0.0,////,17.4,0.0,12.3,3.513
2013/03/01,04:00:01,178,195,207,0.9,1.0,1.2,19.3,86.2,1008.1,0.00,0,0.0,////,0.0,0,0.0,////,17.5,0.0,12.3,3.513
2013/03/01,04:10:01,184,189,191,1.4,1.5,1.7,19.2,86.0,1008.2,0.00,0,0.0,////,0.0,0,0.0,////,17.5,0.0,12.3,3.513
2013/03/01,04:20:01,189,191,193,1.2,1.3,1.4,19.1,86.1,1008.2,0.00,0,0.0,////,0.0,0,0.0,////,17.5,0.0,12.3,3.511
2013/03/01,04:30:01,212,215,217,0.9,0.9,1.0,19.3,86.6,1008.0,0.00,0,0.0,////,0.0,0,0.0,////,17.5,0.0,12.3,3.511
2013/03/01,04:40:01,219,220,221,0.8,0.9,1.0,19.2,86.3,1008.0,0.00,0,0.0,////,0.0,0,0.0,////,17.4,0.0,12.3,3.514
2013/03/01,04:50:01,214,215,216,0.8,0.8,0.9,19.3,86.0,1008.0,0.00,0,0.0,////,0.0,0,0.0,////,17.4,0.0,12.3,3.513
2013/03/01,05:00:01,219,220,221,0.4,0.5,0.5,19.3,86.1,1008.0,0.00,0,0.0,////,0.0,0,0.0,////,17.4,0.0,12.3,3.511
2013/03/01,05:10:01,129,133,136,0.4,0.5,0.6,19.3,86.0,1008.1,0.00,0,0.0,////,0.0,0,0.0,////,17.4,0.0,12.3,3.511
2013/03/01,05:20:01,191,192,193,0.9,1.0,1.1,19.3,85.9,1008.1,0.00,0,0.0,////,0.0,0,0.0,////,17.4,0.0,12.3,3.513
2013/03/01,05:30:01,183,184,185,0.9,1.0,1.1,19.2,86.1,1008.2,0.00,0,0.0,////,0.0,0,0.0,////,17.2,0.0,12.3,3.511
2013/03/01,05:40:01,171,173,175,0.9,0.9,1.0,19.1,85.9,1008.2,0.00,0,0.0,////,0.0,0,0.0,////,17.4,0.0,12.3,3.511
2013/03/01,05:50:01,155,159,163,0.7,0.7,0.8,19.2,86.0,1008.2,0.00,0,0.0,////,0.0,0,0.0,////,17.2,0.0,12.3,3.511
2013/03/01,06:00:01,210,215,218,0.7,0.8,1.0,19.1,85.8,1008.3,0.00,0,0.0,////,0.0,0,0.0,////,17.2,0.0,12.3,3.511
2013/03/01,06:10:01,213,216,220,1.1,1.3,1.4,19.0,86.1,1008.3,0.00,0,0.0,////,0.0,0,0.0,////,17.2,0.0,12.3,3.511
2013/03/01,06:20:01,210,212,213,1.0,1.1,1.2,19.0,85.8,1008.3,0.00,0,0.0,////,0.0,0,0.0,////,17.2,0.0,12.3,3.513
2013/03/01,06:30:01,202,207,213,1.3,1.5,1.7,18.8,85.8,1008.3,0.00,0,0.0,////,0.0,0,0.0,////,17.0,0.0,12.3,3.514
2013/03/01,06:40:01,222,224,226,1.2,1.3,1.5,18.8,85.5,1008.4,0.00,0,0.0,////,0.0,0,0.0,////,17.2,0.0,12.3,3.513
2013/03/01,06:50:01,251,251,252,1.7,1.8,1.9,19.0,85.1,1008.3,0.00,0,0.0,////,0.0,0,0.0,////,17.4,0.0,12.3,3.513
2013/03/01,07:00:01,210,219,226,1.9,2.2,2.6,19.0,84.4,1008.4,0.00,0,0.0,////,0.0,0,0.0,////,17.5,0.0,12.3,3.513
2013/03/01,07:10:01,209,216,229,0.9,1.0,1.1,19.3,84.5,1008.4,0.00,0,0.0,////,0.0,0,0.0,////,17.7,0.0,12.3,3.515
2013/03/01,07:20:01,187,194,199,1.0,1.1,1.2,19.4,84.2,1008.4,0.00,0,0.0,////,0.0,0,0.0,////,18.1,0.0,12.3,3.510
2013/03/01,07:30:01,043,051,055,0.3,0.4,0.5,19.4,83.8,1008.4,0.00,0,0.0,////,0.0,0,0.0,////,18.6,0.0,12.3,3.513
2013/03/01,07:40:01,176,226,285,0.6,1.1,1.8,19.4,83.4,1008.3,0.00,0,0.0,////,0.0,0,0.0,////,19.3,0.0,12.3,3.513
2013/03/01,07:50:01,229,232,235,1.1,1.2,1.3,20.0,81.4,1008.3,0.00,0,0.0,////,0.0,0,0.0,////,19.8,0.0,12.3,3.513
2013/03/01,08:00:01,247,262,275,1.2,1.4,1.6,20.2,77.4,1008.3,0.00,0,0.0,////,0.0,0,0.0,////,20.8,0.0,12.3,3.511
2013/03/01,08:10:01,216,218,220,1.2,1.5,1.7,21.0,77.2,1008.4,0.00,0,0.0,////,0.0,0,0.0,////,21.8,0.0,12.3,3.513
2013/03/01,08:20:01,186,207,221,0.0,0.1,0.2,21.5,76.6,1008.4,0.00,0,0.0,////,0.0,0,0.0,////,23.1,0.0,12.3,3.513
2013/03/01,08:30:01,196,198,200,0.7,0.8,0.8,21.6,74.8,1008.5,0.00,0,0.0,////,0.0,0,0.0,////,23.6,0.0,12.3,3.511
2013/03/01,08:40:01,040,050,060,0.1,0.2,0.3,21.9,74.7,1008.5,0.00,0,0.0,////,0.0,0,0.0,////,24.3,0.0,12.3,3.513
2013/03/01,08:50:01,303,314,323,0.3,0.4,0.4,22.1,73.9,1008.5,0.00,0,0.0,////,0.0,0,0.0,////,25.0,0.0,12.3,3.511
2013/03/01,09:00:01,243,246,251,2.7,2.9,3.0,22.2,72.3,1008.5,0.00,0,0.0,////,0.0,0,0.0,////,25.1,0.0,12.3,3.511
2013/03/01,09:10:01,250,254,262,1.5,1.6,1.7,22.1,73.2,1008.5,0.00,0,0.0,////,0.0,0,0.0,////,24.3,0.0,12.3,3.513
2013/03/01,09:20:01,259,261,264,2.2,2.7,3.1,22.2,73.7,1008.5,0.00,0,0.0,////,0.0,0,0.0,////,24.1,0.0,12.2,3.513
2013/03/01,09:30:01,164,181,191,1.8,2.2,2.7,22.5,72.7,1008.6,0.00,0,0.0,////,0.0,0,0.0,////,24.3,0.0,12.3,3.511
2013/03/01,09:40:01,162,170,180,2.2,2.4,2.6,22.7,71.9,1008.5,0.00,0,0.0,////,0.0,0,0.0,////,24.8,0.0,12.3,3.511
2013/03/01,09:50:01,181,182,184,3.4,3.5,3.6,23.2,69.8,1008.5,0.00,0,0.0,////,0.0,0,0.0,////,25.5,0.0,12.3,3.511
2013/03/01,10:00:01,190,201,206,3.5,3.7,3.9,23.3,70.1,1008.4,0.00,0,0.0,////,0.0,0,0.0,////,25.8,0.0,12.3,3.513
2013/03/01,10:10:01,199,203,210,1.9,2.2,2.7,23.7,69.7,1008.5,0.00,0,0.0,////,0.0,0,0.0,////,26.3,0.0,12.3,3.513
2013/03/01,10:20:01,191,219,242,1.6,1.8,2.1,23.7,68.1,1008.5,0.00,0,0.0,////,0.0,0,0.0,////,26.7,0.0,12.3,3.511
2013/03/01,10:30:01,182,185,186,0.6,0.7,0.9,23.8,67.1,1008.4,0.00,0,0.0,////,0.0,0,0.0,////,26.7,0.0,12.3,3.511
2013/03/01,10:40:01,221,232,245,1.7,2.1,2.4,24.0,66.3,1008.4,0.00,0,0.0,////,0.0,0,0.0,////,27.5,0.0,12.3,3.510
2013/03/01,10:50:01,217,225,238,2.8,3.2,3.5,23.6,67.6,1008.4,0.00,0,0.0,////,0.0,0,0.0,////,26.2,0.0,12.3,3.511
2013/03/01,11:00:01,180,196,208,2.0,2.2,2.4,23.7,70.7,1008.2,0.00,0,0.0,////,0.0,0,0.0,////,25.8,0.0,12.3,3.514
2013/03/01,11:10:01,199,205,214,1.4,1.7,2.1,23.8,69.1,1008.1,0.00,0,0.0,////,0.0,0,0.0,////,26.8,0.0,12.3,3.511
2013/03/01,11:20:01,214,218,225,3.8,3.9,4.0,23.9,67.1,1007.9,0.00,0,0.0,////,0.0,0,0.0,////,26.7,0.0,12.3,3.513
2013/03/01,11:30:01,193,211,223,1.5,1.9,2.4,24.2,67.5,1007.8,0.00,0,0.0,////,0.0,0,0.0,////,27.0,0.0,12.3,3.511
2013/03/01,11:40:01,223,248,276,2.2,3.1,3.8,24.1,68.5,1007.6,0.00,0,0.0,////,0.0,0,0.0,////,26.8,0.0,12.3,3.513
2013/03/01,11:50:01,232,237,241,2.3,2.5,2.8,24.4,69.6,1007.5,0.00,0,0.0,////,0.0,0,0.0,////,27.5,0.0,12.3,3.511
2013/03/01,12:00:01,219,231,251,1.7,2.6,3.3,24.3,69.6,1007.3,0.00,0,0.0,////,0.0,0,0.0,////,27.4,0.0,12.3,3.513
2013/03/01,12:10:01,231,232,234,2.6,3.2,3.8,24.3,68.0,1007.0,0.00,0,0.0,////,0.0,0,0.0,////,27.4,0.0,12.3,3.513
2013/03/01,12:20:01,209,225,244,1.7,2.1,2.6,24.4,68.4,1006.8,0.00,0,0.0,////,0.0,0,0.0,////,27.0,0.0,12.3,3.514
2013/03/01,12:30:01,235,236,238,3.7,4.3,4.7,24.7,65.3,1006.6,0.00,0,0.0,////,0.0,0,0.0,////,27.4,0.0,12.3,3.511
2013/03/01,12:40:01,195,204,216,1.8,2.0,2.2,25.1,63.4,1006.5,0.00,0,0.0,////,0.0,0,0.0,////,28.2,0.0,12.3,3.511
2013/03/01,12:50:01,209,221,232,5.2,5.3,5.3,25.0,63.4,1006.3,0.00,0,0.0,////,0.0,0,0.0,////,27.5,0.0,12.3,3.513
2013/03/01,13:00:01,199,204,211,1.2,1.5,1.9,25.2,63.5,1005.9,0.00,0,0.0,////,0.0,0,0.0,////,27.9,0.0,12.3,3.513
2013/03/01,13:10:01,216,220,225,4.5,4.7,4.8,25.3,63.1,1005.7,0.00,0,0.0,////,0.0,0,0.0,////,28.1,0.0,12.3,3.514
2013/03/01,13:20:01,197,221,255,2.3,2.9,3.6,25.2,63.0,1005.5,0.00,0,0.0,////,0.0,0,0.0,////,28.1,0.0,12.3,3.511
2013/03/01,13:30:01,227,233,242,3.1,3.3,3.6,25.3,62.6,1005.3,0.00,0,0.0,////,0.0,0,0.0,////,27.9,0.0,12.3,3.513
2013/03/01,13:40:01,182,194,209,2.5,3.0,3.5,25.4,63.2,1005.0,0.00,0,0.0,////,0.0,0,0.0,////,28.1,0.0,12.3,3.511
2013/03/01,13:50:01,219,223,229,3.1,3.9,4.4,25.4,62.8,1004.7,0.00,0,0.0,////,0.0,0,0.0,////,27.7,0.0,12.3,3.511
2013/03/01,14:00:01,235,245,258,3.0,3.2,3.6,25.3,63.6,1004.7,0.00,0,0.0,////,0.0,0,0.0,////,27.9,0.0,12.3,3.511
2013/03/01,14:10:01,206,208,210,3.3,3.4,3.7,25.5,63.8,1004.2,0.00,0,0.0,////,0.0,0,0.0,////,27.9,0.0,12.3,3.510
2013/03/01,14:20:01,192,196,199,3.4,4.3,5.8,25.8,60.5,1004.1,0.00,0,0.0,////,0.0,0,0.0,////,28.2,0.0,12.3,3.511
2013/03/01,14:30:01,198,201,204,3.2,3.9,4.3,25.8,62.0,1004.3,0.00,0,0.0,////,0.0,0,0.0,////,28.2,0.0,12.3,3.513
2013/03/01,14:40:01,218,230,246,2.6,2.9,3.1,25.6,63.2,1004.9,0.00,0,0.0,////,0.0,0,0.0,////,28.2,0.0,12.3,3.511
2013/03/01,14:50:01,229,233,239,4.5,5.2,5.7,25.4,65.1,1005.3,0.00,0,0.0,////,0.0,0,0.0,////,28.6,0.0,12.3,3.511
2013/03/01,15:00:01,236,240,247,2.6,3.5,4.4,24.8,67.1,1005.4,0.00,0,0.0,////,0.0,0,0.0,////,27.0,0.0,12.2,3.511
2013/03/01,15:10:01,299,315,337,1.6,2.3,2.7,24.4,71.7,1005.6,0.00,0,0.0,////,0.0,0,0.0,////,25.3,0.0,12.3,3.511
2013/03/01,15:20:01,173,189,203,1.0,1.2,1.4,23.6,76.0,1005.5,0.00,0,0.0,////,0.0,0,0.0,////,23.9,0.0,12.3,3.513
2013/03/01,15:30:01,228,243,253,3.3,3.6,3.8,23.0,78.0,1005.6,0.00,0,0.0,////,0.0,0,0.0,////,23.4,0.0,12.3,3.513
2013/03/01,15:40:01,228,254,276,3.6,3.8,4.0,22.9,78.6,1005.7,0.00,0,0.0,////,0.0,0,0.0,////,23.7,0.0,12.3,3.511
2013/03/01,15:50:01,234,245,254,3.5,4.0,4.5,22.8,80.8,1005.7,0.00,0,0.0,////,0.0,0,0.0,////,22.9,0.0,12.3,3.511
2013/03/01,16:00:01,254,289,306,4.4,5.5,7.3,22.7,81.1,1005.6,0.00,0,0.0,////,0.0,0,0.0,////,23.7,0.0,12.3,3.511
2013/03/01,16:10:01,208,230,276,3.2,3.9,6.5,22.6,81.0,1005.6,0.00,0,0.0,////,0.0,0,0.0,////,23.6,0.0,12.3,3.513
2013/03/01,16:20:01,246,263,284,6.8,7.4,8.4,22.5,81.4,1005.9,0.00,0,0.0,////,0.0,0,0.0,////,23.2,0.0,12.3,3.513
2013/03/01,16:30:01,259,293,312,3.3,4.5,6.1,22.5,81.8,1005.9,0.00,0,0.0,////,0.0,0,0.0,////,22.9,0.0,12.3,3.513
2013/03/01,16:40:01,252,260,272,5.2,6.9,7.9,22.4,82.8,1006.0,0.00,0,0.0,////,0.0,0,0.0,////,22.7,0.0,12.3,3.513
2013/03/01,16:50:01,223,238,254,3.0,4.1,4.7,22.5,83.5,1005.9,0.00,0,0.0,////,0.0,0,0.0,////,22.7,0.0,12.3,3.514
2013/03/01,17:00:01,250,263,275,2.3,2.9,3.2,22.7,82.4,1005.8,0.00,0,0.0,////,0.0,0,0.0,////,23.2,0.0,12.3,3.513
2013/03/01,17:10:01,233,238,245,2.2,2.6,3.2,22.7,82.6,1005.9,0.00,0,0.0,////,0.0,0,0.0,////,23.1,0.0,12.3,3.513
2013/03/01,17:20:01,222,229,240,2.4,3.2,3.9,22.6,82.7,1005.8,0.00,0,0.0,////,0.0,0,0.0,////,22.7,0.0,12.3,3.514
2013/03/01,17:30:01,201,220,259,1.5,2.6,4.2,22.3,83.5,1005.8,0.00,0,0.0,////,0.0,0,0.0,////,22.2,0.0,12.3,3.513
2013/03/01,17:40:01,227,238,251,2.7,3.1,3.5,22.2,84.0,1006.0,0.00,0,0.0,////,0.0,0,0.0,////,21.8,0.0,12.3,3.514
2013/03/01,17:50:01,231,233,234,4.1,4.2,4.4,22.0,84.8,1006.3,0.00,0,0.0,////,0.0,0,0.0,////,21.3,0.0,12.3,3.511
2013/03/01,18:00:01,223,234,241,3.0,3.8,4.3,21.9,85.2,1006.2,0.00,0,0.0,////,0.0,0,0.0,////,21.2,0.0,12.3,3.511
2013/03/01,18:10:01,238,246,258,5.7,6.4,7.0,21.9,86.1,1006.2,0.00,0,0.0,////,0.0,0,0.0,////,20.8,0.0,12.3,3.513
2013/03/01,18:20:01,229,251,274,3.3,4.0,4.4,21.7,86.9,1006.3,0.00,0,0.0,////,0.0,0,0.0,////,20.5,0.0,12.3,3.511
2013/03/01,18:30:01,248,257,268,2.8,3.8,4.7,21.6,86.9,1006.3,0.00,0,0.0,////,0.0,0,0.0,////,20.3,0.0,12.3,3.511
2013/03/01,18:40:01,226,228,229,3.4,3.7,4.2,21.5,86.6,1006.3,0.00,0,0.0,////,0.0,0,0.0,////,20.3,0.0,12.3,3.513
2013/03/01,18:50:01,239,249,264,4.5,5.0,5.3,21.5,86.6,1006.5,0.00,0,0.0,////,0.0,0,0.0,////,20.3,0.0,12.3,3.513
2013/03/01,19:00:01,238,245,260,4.4,4.8,5.5,21.5,86.7,1006.4,0.00,0,0.0,////,0.0,0,0.0,////,20.3,0.0,12.3,3.511
2013/03/01,19:10:01,231,234,239,2.8,3.1,3.3,21.5,86.9,1006.5,0.00,0,0.0,////,0.0,0,0.0,////,20.3,0.0,12.2,3.513
2013/03/01,19:20:01,225,234,244,2.7,3.4,4.5,21.5,87.1,1006.5,0.00,0,0.0,////,0.0,0,0.0,////,20.3,0.0,12.3,3.511
2013/03/01,19:30:01,209,235,276,2.9,3.8,4.5,21.4,87.3,1006.6,0.00,0,0.0,////,0.0,0,0.0,////,20.3,0.0,12.3,3.513
2013/03/01,19:40:01,223,230,236,3.4,4.1,4.9,21.4,87.2,1006.5,0.00,0,0.0,////,0.0,0,0.0,////,20.1,0.0,12.3,3.513
2013/03/01,19:50:01,234,236,240,4.5,4.9,5.6,21.3,86.9,1006.6,0.00,0,0.0,////,0.0,0,0.0,////,20.3,0.0,12.3,3.513
2013/03/01,20:00:01,220,225,229,2.4,3.0,3.5,21.3,86.1,1006.6,0.00,0,0.0,////,0.0,0,0.0,////,20.1,0.0,12.3,3.511
2013/03/01,20:10:01,207,220,232,1.6,2.4,3.2,21.3,85.2,1006.5,0.00,0,0.0,////,0.0,0,0.0,////,20.3,0.0,12.3,3.513
2013/03/01,20:20:01,228,239,248,2.0,2.5,3.3,21.4,84.7,1006.6,0.00,0,0.0,////,0.0,0,0.0,////,20.3,0.0,12.3,3.511
2013/03/01,20:30:01,199,211,218,2.6,2.8,3.1,21.4,84.8,1006.7,0.00,0,0.0,////,0.0,0,0.0,////,20.1,0.0,12.3,3.513
2013/03/01,20:40:01,221,222,222,3.5,3.7,4.0,21.4,85.1,1006.7,0.00,0,0.0,////,0.0,0,0.0,////,20.3,0.0,12.3,3.511
2013/03/01,20:50:01,230,238,246,4.4,4.7,5.3,21.5,84.7,1006.9,0.43,140,20.3,////,0.0,0,0.0,////,20.5,0.0,12.3,3.513
2013/03/01,21:00:01,330,345,357,4.0,4.6,5.5,20.4,87.7,1007.5,0.67,240,0.0,////,0.0,0,0.0,////,19.3,0.0,12.4,3.511
2013/03/01,21:10:01,002,007,015,3.5,4.3,5.1,20.3,87.6,1007.7,0.00,0,0.0,////,0.0,0,0.0,////,18.9,0.0,12.3,3.511
2013/03/01,21:20:01,346,352,359,2.5,3.2,3.8,20.4,85.6,1007.7,0.00,0,0.0,////,0.0,0,0.0,////,19.1,0.0,12.3,3.513
2013/03/01,21:30:01,340,344,349,5.8,6.4,7.4,20.4,84.8,1007.9,0.00,0,0.0,////,0.0,0,0.0,////,19.3,0.0,12.3,3.513
2013/03/01,21:40:01,333,334,335,5.2,5.6,5.9,20.4,84.7,1008.0,0.04,100,0.3,////,0.0,0,0.0,////,19.1,0.0,12.3,3.513
2013/03/01,21:50:01,342,346,350,4.2,5.3,6.9,20.3,83.6,1008.0,0.00,10,0.0,////,0.0,0,0.0,////,18.9,0.0,12.3,3.511
2013/03/01,22:00:01,326,351,006,6.1,7.3,7.7,20.3,83.6,1008.0,0.00,0,0.0,////,0.0,0,0.0,////,19.1,0.0,12.3,3.513
2013/03/01,22:10:01,354,357,000,4.6,6.4,8.3,20.1,84.1,1008.1,0.00,0,0.0,////,0.0,0,0.0,////,18.9,0.0,12.3,3.511
2013/03/01,22:20:01,345,352,357,5.2,5.6,6.0,19.9,83.1,1008.2,0.00,0,0.0,////,0.0,0,0.0,////,18.9,0.0,12.3,3.513
2013/03/01,22:30:01,343,349,358,5.7,6.5,7.2,19.9,82.8,1008.2,0.00,0,0.0,////,0.0,0,0.0,////,18.9,0.0,12.3,3.511
2013/03/01,22:40:01,344,350,359,6.9,7.4,7.9,20.0,82.6,1008.3,0.00,0,0.0,////,0.0,0,0.0,////,18.9,0.0,12.3,3.513
2013/03/01,22:50:01,338,344,351,8.2,8.3,8.6,19.9,82.2,1008.3,0.00,0,0.0,////,0.0,0,0.0,////,19.1,0.0,12.3,3.511
2013/03/01,23:00:01,336,349,357,4.3,4.8,5.2,19.8,81.5,1008.4,0.00,0,0.0,////,0.0,0,0.0,////,18.9,0.0,12.3,3.511
2013/03/01,23:10:01,329,343,351,7.8,8.7,9.7,19.7,81.5,1008.4,0.00,0,0.0,////,0.0,0,0.0,////,18.7,0.0,12.3,3.511
2013/03/01,23:20:01,351,353,356,5.1,6.6,7.9,19.7,81.3,1008.6,0.00,0,0.0,////,0.0,0,0.0,////,18.7,0.0,12.3,3.511
2013/03/01,23:30:01,347,352,355,6.7,7.3,7.9,19.4,82.1,1008.6,0.00,0,0.0,////,0.0,0,0.0,////,18.4,0.0,12.3,3.511
2013/03/01,23:40:01,008,011,014,8.2,8.8,9.5,19.1,82.9,1008.7,0.00,0,0.0,////,0.0,0,0.0,////,18.2,0.0,12.4,3.511
2013/03/01,23:50:01,343,001,015,3.8,4.4,5.1,19.1,82.9,1008.8,0.00,0,0.0,////,0.0,0,0.0,////,18.1,0.0,12.3,3.511
2013/03/02,00:00:01,339,347,353,4.8,6.6,7.8,19.0,81.9,1008.8,0.00,0,0.0,////,0.0,0,0.0,////,18.1,0.0,12.3,3.514
2013/03/02,00:10:01,348,351,353,6.9,7.4,7.8,19.0,83.1,1008.9,0.00,0,0.0,////,0.0,0,0.0,////,18.1,0.0,12.3,3.513
2013/03/02,00:20:01,344,348,355,4.7,5.4,6.8,18.7,83.6,1009.0,0.00,0,0.0,////,0.0,0,0.0,////,17.7,0.0,12.3,3.513
2013/03/02,00:30:01,330,348,012,2.1,3.1,4.4,18.6,83.7,1009.0,0.00,0,0.0,////,0.0,0,0.0,////,17.5,0.0,12.3,3.513
2013/03/02,00:40:01,354,002,007,7.4,8.2,8.9,18.6,83.2,1009.2,0.00,0,0.0,////,0.0,0,0.0,////,17.5,0.0,12.3,3.513
2013/03/02,00:50:01,340,345,352,6.2,6.7,7.0,18.4,83.8,1009.2,0.00,0,0.0,////,0.0,0,0.0,////,17.4,0.0,12.3,3.513
2013/03/02,01:00:01,345,353,359,2.9,4.1,5.0,18.3,83.4,1009.2,0.00,0,0.0,////,0.0,0,0.0,////,17.2,0.0,12.4,3.511
2013/03/02,01:10:01,336,346,355,6.8,7.7,8.8,18.2,82.8,1009.2,0.00,0,0.0,////,0.0,0,0.0,////,17.2,0.0,12.3,3.511
2013/03/02,01:20:01,356,001,005,7.1,7.7,8.2,18.2,82.9,1009.2,0.00,0,0.0,////,0.0,0,0.0,////,17.2,0.0,12.3,3.515
2013/03/02,01:30:01,353,358,001,6.1,7.1,7.7,18.0,83.5,1008.9,0.00,0,0.0,////,0.0,0,0.0,////,16.9,0.0,12.3,3.513
2013/03/02,01:40:01,356,001,013,6.4,6.5,6.6,17.8,83.9,1009.0,0.00,0,0.0,////,0.0,0,0.0,////,16.9,0.0,12.3,3.513
2013/03/02,01:50:01,327,005,031,2.8,3.4,3.9,17.7,83.1,1008.9,0.00,0,0.0,////,0.0,0,0.0,////,16.7,0.0,12.3,3.513
2013/03/02,02:00:01,355,003,012,3.7,4.5,5.3,17.6,84.2,1009.1,0.00,0,0.0,////,0.0,0,0.0,////,16.3,0.0,12.3,3.514
2013/03/02,02:10:01,346,354,358,4.6,5.5,6.4,17.4,84.4,1009.2,0.00,0,0.0,////,0.0,0,0.0,////,16.2,0.0,12.3,3.513
2013/03/02,02:20:01,346,001,009,6.1,7.1,8.4,17.4,83.6,1009.1,0.00,0,0.0,////,0.0,0,0.0,////,16.3,0.0,12.3,3.513
2013/03/02,02:30:01,004,007,013,5.9,6.4,7.0,17.2,83.6,1008.9,0.00,0,0.0,////,0.0,0,0.0,////,16.2,0.0,12.2,3.511
2013/03/02,02:40:01,010,014,018,8.3,8.5,8.7,17.2,82.2,1008.9,0.00,0,0.0,////,0.0,0,0.0,////,16.2,0.0,12.3,3.513
2013/03/02,02:50:01,343,349,358,5.7,6.5,7.7,17.2,81.3,1009.1,0.00,0,0.0,////,0.0,0,0.0,////,16.3,0.0,12.2,3.513
2013/03/02,03:00:01,001,009,019,6.7,6.9,7.0,17.3,81.8,1009.1,0.00,0,0.0,////,0.0,0,0.0,////,16.2,0.0,12.3,3.513
2013/03/02,03:10:01,352,356,001,6.6,6.8,7.0,17.2,82.9,1009.2,0.00,0,0.0,////,0.0,0,0.0,////,16.0,0.0,12.2,3.511
2013/03/02,03:20:01,344,354,002,6.7,7.5,8.7,17.1,81.8,1009.3,0.00,0,0.0,////,0.0,0,0.0,////,16.0,0.0,12.3,3.513
2013/03/02,03:30:01,339,358,008,4.6,6.2,7.3,16.9,81.7,1009.4,0.00,0,0.0,////,0.0,0,0.0,////,15.8,0.0,12.3,3.511
2013/03/02,03:40:01,358,359,002,4.5,5.0,5.7,17.0,80.0,1009.4,0.00,0,0.0,////,0.0,0,0.0,////,15.8,0.0,12.3,3.513
2013/03/02,03:50:01,006,010,015,7.5,8.7,10.1,16.8,82.1,1009.5,0.00,0,0.0,////,0.0,0,0.0,////,15.8,0.0,12.3,3.513
2013/03/02,04:00:01,359,009,022,7.2,8.0,8.9,16.4,82.4,1009.3,0.00,0,0.0,////,0.0,0,0.0,////,15.1,0.0,12.3,3.513
2013/03/02,04:10:01,358,005,016,6.1,6.3,6.6,16.3,85.8,1009.3,0.00,0,0.0,////,0.0,0,0.0,////,15.1,0.0,12.3,3.513
2013/03/02,04:20:01,000,002,004,7.9,8.4,9.1,16.1,85.6,1009.4,0.00,0,0.0,////,0.0,0,0.0,////,15.0,0.0,12.3,3.513
2013/03/02,04:30:01,349,000,006,4.9,5.7,6.4,16.0,84.2,1009.5,0.00,0,0.0,////,0.0,0,0.0,////,14.8,0.0,12.3,3.513
2013/03/02,04:40:01,346,357,004,7.4,8.1,8.5,16.4,83.0,1009.7,0.00,0,0.0,////,0.0,0,0.0,////,15.3,0.0,12.3,3.513
2013/03/02,04:50:01,341,352,003,4.2,5.0,5.6,16.3,81.9,1009.8,0.00,10,0.0,////,0.0,0,0.0,////,15.1,0.0,12.3,3.513
2013/03/02,05:00:01,318,338,000,3.3,3.8,4.2,16.3,77.8,1010.0,0.00,0,0.0,////,0.0,0,0.0,////,15.3,0.0,12.3,3.514
2013/03/02,05:10:01,351,352,354,5.2,5.8,6.4,16.7,76.3,1010.1,0.00,0,0.0,////,0.0,0,0.0,////,15.5,0.0,12.3,3.513
2013/03/02,05:20:01,002,012,019,5.8,6.7,7.8,16.6,75.2,1010.3,0.00,0,0.0,////,0.0,0,0.0,////,15.3,0.0,12.3,3.511
2013/03/02,05:30:01,351,000,009,7.4,8.2,8.9,16.4,76.8,1010.3,0.00,0,0.0,////,0.0,0,0.0,////,15.6,0.0,12.3,3.513
2013/03/02,05:40:01,347,351,354,9.5,9.6,9.7,16.3,73.4,1010.4,0.00,0,0.0,////,0.0,0,0.0,////,15.3,0.0,12.3,3.511
2013/03/02,05:50:01,333,344,351,5.4,6.0,7.3,16.4,73.0,1010.6,0.00,0,0.0,////,0.0,0,0.0,////,15.3,0.0,12.3,3.511
2013/03/02,06:00:01,331,345,358,4.2,5.9,7.8,16.5,71.4,1010.7,0.00,0,0.0,////,0.0,0,0.0,////,15.6,0.0,12.3,3.513
2013/03/02,06:10:01,359,008,012,8.1,8.8,9.4,16.6,72.0,1010.9,0.00,0,0.0,////,0.0,0,0.0,////,15.5,0.0,12.3,3.513
2013/03/02,06:20:01,355,359,002,4.8,5.2,5.5,16.6,70.8,1011.0,0.00,0,0.0,////,0.0,0,0.0,////,15.5,0.0,12.3,3.511
2013/03/02,06:30:01,353,004,013,4.6,5.4,6.0,16.6,71.6,1011.0,0.00,0,0.0,////,0.0,0,0.0,////,15.5,0.0,12.3,3.513
2013/03/02,06:40:01,005,015,023,7.8,8.6,9.3,16.4,71.2,1011.2,0.00,0,0.0,////,0.0,0,0.0,////,15.5,0.0,12.3,3.513
2013/03/02,06:50:01,356,004,013,6.4,6.9,7.4,16.4,70.7,1011.4,0.00,0,0.0,////,0.0,0,0.0,////,15.3,0.0,12.3,3.513
2013/03/02,07:00:01,330,339,354,6.4,8.0,9.0,16.3,70.8,1011.5,0.00,0,0.0,////,0.0,0,0.0,////,15.3,0.0,12.3,3.511
2013/03/02,07:10:01,343,358,007,4.7,4.9,5.3,16.1,70.4,1011.7,0.00,0,0.0,////,0.0,0,0.0,////,15.1,0.0,12.3,3.511
2013/03/02,07:20:01,004,008,015,5.4,6.1,7.3,16.0,67.6,1012.0,0.00,0,0.0,////,0.0,0,0.0,////,15.1,0.0,12.3,3.513
2013/03/02,07:30:01,335,346,356,7.0,7.4,7.7,16.1,65.2,1012.1,0.00,0,0.0,////,0.0,0,0.0,////,15.1,0.0,12.3,3.514
2013/03/02,07:40:01,003,018,035,4.2,4.5,4.9,16.1,64.5,1012.2,0.00,0,0.0,////,0.0,0,0.0,////,15.1,0.0,12.3,3.513
2013/03/02,07:50:01,346,350,353,4.2,4.8,5.5,16.2,64.8,1012.3,0.00,0,0.0,////,0.0,0,0.0,////,15.3,0.0,12.3,3.513
2013/03/02,08:00:01,357,006,013,6.0,6.5,7.4,16.2,62.1,1012.3,0.00,0,0.0,////,0.0,0,0.0,////,15.3,0.0,12.3,3.513
2013/03/02,08:10:01,341,347,351,7.2,7.4,7.6,16.2,66.3,1012.5,0.00,0,0.0,////,0.0,0,0.0,////,15.3,0.0,12.3,3.513
2013/03/02,08:20:01,354,355,357,4.0,4.1,4.2,16.2,66.7,1012.7,0.00,0,0.0,////,0.0,0,0.0,////,15.3,0.0,12.3,3.513
2013/03/02,08:30:01,308,331,350,4.9,5.9,7.2,16.4,69.6,1012.6,0.00,0,0.0,////,0.0,0,0.0,////,15.3,0.0,12.3,3.511
2013/03/02,08:40:01,342,348,353,5.2,5.6,6.3,16.2,71.0,1012.8,0.00,0,0.0,////,0.0,0,0.0,////,15.3,0.0,12.3,3.513
2013/03/02,08:50:01,345,351,357,7.0,7.4,8.0,16.2,70.4,1012.9,0.00,0,0.0,////,0.0,0,0.0,////,15.1,0.0,12.3,3.513
2013/03/02,09:00:01,322,342,357,4.7,5.3,6.3,15.9,70.3,1013.0,0.00,0,0.0,////,0.0,0,0.0,////,15.0,0.0,12.3,3.511
2013/03/02,09:10:01,340,348,357,4.9,6.8,7.9,15.9,69.2,1013.2,0.00,0,0.0,////,0.0,0,0.0,////,15.0,0.0,12.3,3.513
2013/03/02,09:20:01,328,338,346,6.5,7.2,8.2,15.9,67.9,1013.3,0.00,0,0.0,////,0.0,0,0.0,////,15.1,0.0,12.3,3.513
2013/03/02,09:30:01,342,347,353,6.4,6.9,7.2,15.9,67.8,1013.5,0.00,0,0.0,////,0.0,0,0.0,////,15.1,0.0,12.3,3.513
2013/03/02,09:40:01,342,349,354,5.3,5.9,6.5,16.0,67.1,1013.5,0.00,0,0.0,////,0.0,0,0.0,////,15.1,0.0,12.3,3.513
2013/03/02,09:50:01,001,005,008,6.9,7.3,7.7,16.0,62.9,1013.5,0.00,0,0.0,////,0.0,0,0.0,////,15.5,0.0,12.3,3.513
2013/03/02,10:00:01,332,340,348,4.0,4.6,5.6,16.1,63.5,1013.6,0.00,0,0.0,////,0.0,0,0.0,////,15.6,0.0,12.3,3.513
2013/03/02,10:10:01,337,341,346,6.4,7.1,7.6,16.2,65.3,1013.5,0.00,0,0.0,////,0.0,0,0.0,////,15.8,0.0,12.3,3.513
2013/03/02,10:20:01,359,010,028,5.5,6.0,6.8,16.5,65.5,1013.6,0.00,0,0.0,////,0.0,0,0.0,////,16.3,0.0,12.3,3.513
2013/03/02,10:30:01,354,359,003,7.1,7.3,7.6,16.7,66.4,1013.5,0.00,0,0.0,////,0.0,0,0.0,////,17.5,0.0,12.3,3.513
2013/03/02,10:40:01,335,353,005,3.9,4.2,4.7,16.6,65.9,1013.6,0.00,0,0.0,////,0.0,0,0.0,////,16.7,0.0,12.3,3.513